Location: Alincthun
(50.7310°N, 1.8022°E)
Time: 17:40:22
(UTC+00:00)

NOSS 3-1 (C) - Pass Details

Date: 17 February 2020
Orbit: 759 x 1449 km, 63.4° (Epoch: 26 March)

Event Time Altitude Azimuth Distance (km) Brightness Sun altitude
Exits shadow 04:36:47 40° 248° (WSW) 1,816 4.4 -23.6°
Maximum altitude 04:37:10 41° 241° (WSW) 1,818 4.4 -23.5°
Drops below altitude 10° 04:44:57 10° 176° (S) 3,483 6.3 -22.3°
Sets 04:48:11 0° 170° (S) 4,500 7.0 -21.8°
